This is the latest recevied weather packets stored in our database for station/object WX4LTG. If no packets are shown the sender has not sent any weather packets the latest 10 day(s).
| Time | Temp. | Humidity | Pressure | Rain* | Wind** | Luminosity | Snow |
|---|---|---|---|---|---|---|---|
| 1777408101 | 27.22° C | 19% | 1015.2 hPa | 0 mm | - | 732 W/m² | - |
| 1777407797 | 27.22° C | 19% | 1015.4 hPa | 0 mm | - | 731 W/m² | - |
| 1777407493 | 27.22° C | 18% | 1015.4 hPa | 0 mm | - | 728 W/m² | - |
| 1777407193 | 26.67° C | 18% | 1015.4 hPa | 0 mm | - | 738 W/m² | - |
| 1777406888 | 27.22° C | 18% | 1015.6 hPa | 0 mm | - | 739 W/m² | - |
| 1777406583 | 27.22° C | 19% | 1015.8 hPa | 0 mm | - | 744 W/m² | - |
| 1777406280 | 27.22° C | 19% | 1015.7 hPa | 0 mm | - | 746 W/m² | - |
| 1777405978 | 25.56° C | 20% | 1015.7 hPa | 0 mm | - | 746 W/m² | - |
| 1777405675 | 26.11° C | 20% | 1015.6 hPa | 0 mm | - | 749 W/m² | - |
| 1777405372 | 26.67° C | 19% | 1016 hPa | 0 mm | - | 749 W/m² | - |
| 1777405068 | 26.67° C | 20% | 1015.9 hPa | 0 mm | - | 749 W/m² | - |
| 1777404763 | 26.11° C | 21% | 1015.9 hPa | 0 mm | - | 749 W/m² | - |
| 1777404460 | 26.67° C | 20% | 1015.9 hPa | 0 mm | - | 747 W/m² | - |
| 1777404155 | 25.56° C | 21% | 1016.1 hPa | 0 mm | - | 745 W/m² | - |
| 1777403852 | 25.56° C | 22% | 1016.3 hPa | 0 mm | - | 744 W/m² | - |
| 1777403547 | 26.11° C | 21% | 1016.3 hPa | 0 mm | - | 744 W/m² | - |
| 1777403247 | 26.11° C | 21% | 1016.4 hPa | 0 mm | - | 742 W/m² | - |
| 1777402946 | 26.11° C | 21% | 1016.1 hPa | 0 mm | - | 741 W/m² | - |
| 1777402642 | 26.11° C | 20% | 1016.4 hPa | 0 mm | - | 738 W/m² | - |
| 1777402341 | 26.11° C | 20% | 1016.6 hPa | 0 mm | - | 734 W/m² | - |
| 1777402040 | 25.56° C | 21% | 1016.3 hPa | 0 mm | - | 731 W/m² | - |
| 1777401740 | 25.56° C | 22% | 1016.4 hPa | 0 mm | - | 726 W/m² | - |
| 1777401436 | 25.56° C | 22% | 1016.6 hPa | 0 mm | - | 722 W/m² | - |
| 1777401132 | 26.11° C | 21% | 1016.6 hPa | 0 mm | - | 717 W/m² | - |
| 1777400827 | 25.56° C | 22% | 1016.9 hPa | 0 mm | - | 711 W/m² | - |
* Rain latest hour (hover to see other rain measurements)
** Current wind speed in m/s (hover to see current wind gust speed)